User: anonymous   Login
Location: Piotrkow Trybunalski
(51.4000°N, 19.6830°E)
Time: 22:54:10
(UTC+02:00)
Language:

STRAND 1 - Orbit

View from above orbital plane
View from above orbital plane
View from above satellite
View from above satellite

Ground track
Ground track

The orbit data is extracted from the following two-line orbital elements,

1 39090U 13009E   24206.48223930  .00000862  00000-0  31031-3 0  9996
2 39090  98.3816  33.7420 0009700 135.8601 224.3361 14.36139690597595
Epoch (UTC): 24 July 2024 11:34:25
Eccentricity: 0.0009700
inclination: 98.3816°
perigee height: 764 km
apogee height: 778 km
right ascension of ascending node: 33.7420°
argument of perigee: 135.8601°
revolutions per day: 14.36139690
mean anomaly at epoch: 224.3361°
orbit number at epoch: 59759

The dashed part of the orbit path shows where the satellite is in the earth's shadow,  

DLR